STARLINK-3159 (49415 NORAD) Tracking and Keplerian Element Data

This shows tracking and keplerian element data for the satellite.

Feedback or suggestion? Click here.




ElementValue
Catalog49415
NameSTARLINK-3159
Epoch Orbit369
Epoch Day15.91668981
Epoch Year2022
RAAN180.2133
Inclination53.2173
Eccentricity0.0001731
Argument of Perigee34.9161
Mean Anonmoly71.819
Mean Motion15.5361552
Decay Rate-0.00650276
L11 49415U 21104H 22015.91668981 -.00650276 00000+0 -10865-1 0 9997
L22 49415 53.2173 180.2133 0001731 34.9161 71.8190 15.53615520 3697

Live tracking and technical data element details for STARLINK-3159 (NORAD 49415). STARLINK-3159 can be tracked NOW for your location showing map with azimuth and elevation plus other details from your city location.

Track the satellite on the map from your city or location and see movement details for azimuth, elevation, latitude, longitude, range, height, and movement on the map or in text.







IsCatalogInMostPopularTable: catalog: 49415, numindb: 5
Update: records affected: 1



GetName: 49415 STARLINK-3159

Hit Count: updated at: Thu, 20 Jan 2022 17:00:02 GMT